EW6103 Weather Reports


time (UTC)temp
C
wind
direction
speed
KPH
gust
KPH
rain 1hr
cm
rain 24hr
cm
rain mn
cm
humidity
%
barometer
mb
20260506202008 13 0 4.8 8.0 0.00 0.28 0.28 85 1003.5
20260506201009 12 45 6.4 9.7 0.00 0.28 0.28 86 1003.8
20260506195008 13 45 4.8 9.7 0.00 0.28 0.28 88 1003.7
20260506194009 13 90 6.4 9.7 0.00 0.28 0.28 87 1003.7
20260506193008 13 45 6.4 12.9 0.00 0.28 0.28 87 1003.8
20260506192006 13 90 4.8 9.7 0.00 0.28 0.28 87 1003.8
20260506191010 13 45 6.4 9.7 0.00 0.28 0.28 87 1003.7
20260506185007 13 0 6.4 12.9 0.00 0.28 0.28 87 1003.8
20260506184009 13 45 6.4 11.3 0.00 0.28 0.28 88 1003.8
20260506183011 13 0 6.4 12.9 0.00 0.28 0.28 87 1004.1
20260506182009 13 45 6.4 14.5 0.00 0.28 0.28 85 1004.0
20260506181006 13 0 8.0 22.5 0.00 0.28 0.28 84 1003.9
20260506175007 15 270 9.7 19.3 0.00 0.28 0.28 83 1003.9
20260506174009 15 0 17.7 35.4 0.00 0.28 0.28 83 1004.2
20260506173010 15 225 1.6 4.8 0.03 0.28 0.28 90 1003.4
20260506171009 15 45 1.6 6.4 0.15 0.28 0.28 90 1002.7
20260506170013 15 0 4.8 8.0 0.15 0.28 0.28 90 1002.8
20260506165008 15 0 4.8 9.7 0.15 0.28 0.28 89 1003.1
20260506164009 15 0 3.2 6.4 0.18 0.28 0.28 89 1003.3
20260506163010 15 45 4.8 8.0 0.15 0.25 0.25 88 1003.3
20260506162008 15 45 3.2 6.4 0.15 0.25 0.25 90 1003.5
20260506161008 16 90 1.6 4.8 0.03 0.13 0.13 86 1003.8
20260506160012 17 90 3.2 6.4 0.03 0.13 0.13 86 1003.4
20260506155008 17 45 1.6 6.4 0.03 0.13 0.13 86 1003.6
20260506154006 17 45 3.2 6.4 0.00 0.10 0.10 82 1003.9
20260506153011 18 0 1.6 4.8 0.00 0.10 0.10 80 1003.7
20260506152005 18 0 1.6 4.8 0.00 0.10 0.10 75 1003.4
20260506151006 17 0 3.2 8.0 0.00 0.10 0.10 81 1003.6
20260506150011 17 0 3.2 6.4 0.00 0.10 0.10 82 1003.8
20260506145009 17 0 3.2 6.4 0.08 0.10 0.10 83 1004.0
20260506144008 18 45 1.6 3.2 0.10 0.10 0.10 81 1003.9
20260506143010 18 45 3.2 6.4 0.10 0.10 0.10 80 1004.0
20260506142008 19 45 1.6 6.4 0.10 0.10 0.10 75 1003.8
20260506141007 19 0 3.2 6.4 0.10 0.10 0.10 72 1003.7
20260506140014 18 0 1.6 4.8 0.10 0.10 0.10 77 1004.1
20260506135008 18 270 6.4 12.9 0.03 0.03 0.03 70 1004.7
20260506134008 21 270 4.8 6.4 0.00 0.00 0.00 52 1003.9
20260506133012 22 270 1.6 6.4 0.00 0.00 0.00 46 1003.6
20260506132010 22 90 1.6 4.8 0.00 0.00 0.00 44 1003.6
20260506131007 22 0 1.6 4.8 0.00 0.00 0.00 47 1003.8
20260506130012 22 270 3.2 6.4 0.00 0.00 0.00 47 1004.1
20260506125010 22 0 3.2 6.4 0.00 0.00 0.00 45 1004.3
20260506124009 21 0 4.8 6.4 0.00 0.00 0.00 52 1004.4
20260506123012 22 270 8.0 20.9 0.00 0.00 0.00 47 1004.5
20260506122009 23 90 4.8 9.7 0.00 0.00 0.00 46 1004.2
20260506121009 23 270 6.4 9.7 0.00 0.00 0.00 49 1004.5
20260506120012 22 0 9.7 16.1 0.00 0.00 0.00 49 1004.6
20260506115008 22 270 8.0 16.1 0.00 0.00 0.00 52 1004.6
20260506114010 23 270 6.4 14.5 0.00 0.00 0.00 47 1004.7
20260506113010 22 225 8.0 17.7 0.00 0.00 0.00 49 1004.8
20260506112008 23 270 6.4 14.5 0.00 0.00 0.00 47 1004.8
20260506110014 22 135 4.8 11.3 0.00 0.00 0.00 50 1005.1
20260506105009 22 270 6.4 12.9 0.00 0.00 0.00 52 1005.1
20260506104009 21 270 9.7 19.3 0.00 0.00 0.00 52 1005.5
20260506103011 22 180 6.4 11.3 0.00 0.00 0.00 48 1005.5
20260506102010 22 225 6.4 16.1 0.00 0.00 0.00 50 1005.6
20260506101008 21 270 9.7 19.3 0.00 0.00 0.00 53 1005.7
20260506095009 20 225 8.0 14.5 0.00 0.00 0.00 58 1005.7
20260506094008 19 0 8.0 12.9 0.00 0.00 0.00 60 1005.7
20260506093010 19 225 9.7 17.7 0.00 0.00 0.00 61 1005.7
20260506092008 20 270 9.7 19.3 0.00 0.00 0.00 58 1005.7
20260506091008 20 225 12.9 19.3 0.00 0.00 0.00 59 1005.6
20260506090012 20 225 8.0 16.1 0.00 0.00 0.00 55 1005.5
20260506085009 19 270 11.3 16.1 0.00 0.00 0.00 61 1005.7
20260506084008 20 225 8.0 14.5 0.00 0.00 0.00 62 1005.5
20260506083012 19 225 8.0 16.1 0.00 0.00 0.00 60 1005.6
20260506082009 18 270 11.3 17.7 0.00 0.00 0.00 65 1005.8
20260506081010 17 270 11.3 17.7 0.00 0.00 0.00 66 1005.9
20260506073010 17 270 8.0 12.9 0.00 0.00 0.00 70 1006.0
20260506072009 16 270 11.3 16.1 0.00 0.00 0.00 71 1006.1
20260506071006 16 270 8.0 12.9 0.00 0.00 0.00 71 1006.1
20260506062009 15 225 9.7 16.1 0.00 0.00 0.00 77 1006.2
20260506061006 15 270 8.0 12.9 0.00 0.00 0.00 79 1006.0
20260506051008 12 180 0.0 0.0 0.00 0.00 0.00 94 1006.0
20260506045009 12 180 0.0 1.6 0.00 0.00 0.00 95 1006.2
20260506044009 12 0 0.0 0.0 0.00 0.00 0.00 95 1006.1
20260506042008 11 180 0.0 0.0 0.00 0.00 0.00 95 1005.8
20260506041006 11 180 0.0 0.0 0.00 0.00 0.00 95 1005.6
20260506040013 11 180 0.0 1.6 0.00 0.00 0.00 95 1005.6
20260506035007 11 180 0.0 1.6 0.00 0.00 0.00 94 1005.5
20260506033010 11 270 0.0 3.2 0.00 0.00 0.00 93 1005.5
20260506032008 12 270 0.0 3.2 0.00 0.00 0.00 94 1005.5
20260506031008 12 270 3.2 4.8 0.00 0.00 0.00 94 1005.6
20260506025009 12 270 6.4 9.7 0.00 0.00 0.00 94 1005.5
20260506024008 11 225 3.2 6.4 0.00 0.00 0.00 93 1005.4
20260506023008 12 270 4.8 6.4 0.00 0.00 0.00 93 1005.2
20260506022011 12 270 3.2 6.4 0.00 0.00 0.00 92 1005.1
20260506020013 13 225 0.0 0.0 0.00 0.00 0.00 89 1004.6
20260506015008 13 270 3.2 6.4 0.00 0.00 0.00 89 1005.0
20260506014008 13 225 6.4 9.7 0.00 0.00 0.00 87 1005.2
20260506012008 14 270 6.4 8.0 0.00 0.00 0.00 83 1004.8
20260506011008 15 0 3.2 8.0 0.00 0.00 0.00 81 1004.8
20260506010012 15 0 3.2 6.4 0.00 0.00 0.00 80 1004.5
20260506005008 15 0 3.2 6.4 0.00 0.00 0.00 79 1004.6
20260506004008 15 0 4.8 9.7 0.00 0.00 0.00 79 1004.4
20260506003009 15 225 6.4 12.9 0.00 0.00 0.00 79 1004.7
20260506002008 15 0 6.4 14.5 0.00 0.00 0.00 79 1004.6
20260506001008 15 315 6.4 11.3 0.00 0.00 0.00 81 1004.7
20260506000016 15 270 6.4 9.7 0.00 0.00 0.00 77 1004.9
20260505235012 14 270 6.4 8.0 0.00 0.00 0.00 69 1004.8
20260505231009 16 180 1.6 4.8 0.00 0.00 0.00 60 1004.4
20260505230014 16 180 1.6 6.4 0.00 0.00 0.00 59 1004.4
20260505225007 17 180 4.8 8.0 0.00 0.00 0.00 57 1004.4
20260505224009 17 180 4.8 6.4 0.00 0.00 0.00 56 1004.4
20260505223015 17 180 3.2 6.4 0.00 0.00 0.00 56 1004.5
20260505222009 17 135 6.4 9.7 0.00 0.00 0.00 57 1003.4
20260505221009 17 0 6.4 14.5 0.00 0.00 0.00 57 1003.2
20260505220015 17 135 6.4 11.3 0.00 0.00 0.00 57 1003.1
20260505215008 16 135 6.4 9.7 0.00 0.00 0.00 59 1003.2
20260505214009 16 90 3.2 6.4 0.00 0.00 0.00 63 1003.4
20260505213009 16 90 3.2 6.4 0.00 0.00 0.00 64 1003.4
20260505212012 16 90 1.6 4.8 0.00 0.00 0.00 70 1003.3
20260505211010 16 90 1.6 3.2 0.00 0.00 0.00 71 1003.4
20260505210013 16 90 1.6 4.8 0.00 0.00 0.00 71 1003.3
20260505205008 16 180 1.6 4.8 0.00 0.00 0.00 71 1003.2
20260505204009 16 180 1.6 4.8 0.00 0.00 0.00 71 1003.3
20260505203009 16 225 1.6 3.2 0.00 0.00 0.00 72 1003.4